WetterOnline ( http://www.wetteronline.de )

Wetter aktuell Rothaargebirge (in 800m)

Aktuelles Wetter: Kahler Asten (841m)

6-stündlich | Neueste Meldungen
Ortszeit Temperatur Wetter
So, 19.08. 20:00 20.6° C wolkenlos
So, 19.08. 14:00 21.5° C wolkenlos
So, 19.08. 8:00 14.2° C leicht bewölkt
So, 19.08. 2:00 13.3° C wolkig
Sa, 18.08. 20:00 18.8° C leicht bewölkt
Sa, 18.08. 14:00 18.8° C fast wolkenlos
Sa, 18.08. 8:00 12.9° C wolkenlos
Sa, 18.08. 2:00 12.2° C bewölkt
Ortszeit Temperatur Wetter
So, 19.08. 22:30 17.0° C leicht bewölkt
So, 19.08. 22:20 17.0° C leicht bewölkt
So, 19.08. 22:10 17.2° C bedeckt
So, 19.08. 22:00 17.5° C leicht bewölkt
So, 19.08. 21:50 17.5° C leicht bewölkt
So, 19.08. 21:40 17.6° C bedeckt
So, 19.08. 21:30 17.9° C wolkenlos
So, 19.08. 21:00 18.6° C wolkenlos
So, 19.08. 20:30 19.4° C wolkenlos
So, 19.08. 20:00 20.6° C wolkenlos
So, 19.08. 19:30 21.3° C wolkenlos
Ortszeit Relative Feuchte Sichtweite
So, 19.08. 20:00 55% 50 km
So, 19.08. 14:00 49% 35 km
So, 19.08. 8:00 69% 28 km
So, 19.08. 2:00 73% 30 km
Sa, 18.08. 20:00 47% 70 km
Sa, 18.08. 14:00 48% 26 km
Sa, 18.08. 8:00 72% 26 km
Sa, 18.08. 2:00 79% 28 km
Ortszeit Relative Feuchte Sichtweite
So, 19.08. 22:30 66% 45 km
So, 19.08. 22:20 66% -
So, 19.08. 22:10 65% -
So, 19.08. 22:00 64% 40 km
So, 19.08. 21:50 64% -
So, 19.08. 21:40 64% -
So, 19.08. 21:30 62% 40 km
So, 19.08. 21:00 60% 40 km
So, 19.08. 20:30 58% 45 km
So, 19.08. 20:00 55% 50 km
So, 19.08. 19:30 52% 45 km
Ortszeit Niederschlagsmenge Niederschlagsart
So, 19.08. 20:00 0.0 l/m2 in 12 Std. -
So, 19.08. 14:00 0.0 l/m2 in 6 Std. -
So, 19.08. 8:00 0.0 l/m2 in 12 Std. -
So, 19.08. 2:00 0.0 l/m2 in 6 Std. -
Sa, 18.08. 20:00 0.0 l/m2 in 12 Std. -
Sa, 18.08. 14:00 0.0 l/m2 in 6 Std. -
Sa, 18.08. 8:00 0.0 l/m2 in 12 Std. -
Sa, 18.08. 2:00 0.0 l/m2 in 6 Std. -
Ortszeit Niederschlagsmenge Niederschlagsart
So, 19.08. 22:30 0.0 l/m2 in 1 Std. -
So, 19.08. 22:20 keine Meldung -
So, 19.08. 22:10 keine Meldung -
So, 19.08. 22:00 0.0 l/m2 in 1 Std. -
So, 19.08. 21:50 keine Meldung -
So, 19.08. 21:40 keine Meldung -
So, 19.08. 21:30 0.0 l/m2 in 1 Std. -
So, 19.08. 21:00 0.0 l/m2 in 1 Std. -
So, 19.08. 20:30 0.0 l/m2 in 1 Std. -
So, 19.08. 20:00 0.0 l/m2 in 1 Std. -
So, 19.08. 19:30 0.0 l/m2 in 1 Std. -
Ortszeit Stärke Spitze Richtung
km/h Bft. km/h Grad Sektor
So, 19.08. 20:00 15 3 33 270° W
So, 19.08. 14:00 20 4 33 210° SW
So, 19.08. 8:00 9 2 20 220° SW
So, 19.08. 2:00 13 3 24 330° NW
Sa, 18.08. 20:00 13 3 26 270° W
Sa, 18.08. 14:00 7 2 29 240° SW
Sa, 18.08. 8:00 11 2 22 320° NW
Sa, 18.08. 2:00 18 3 36 10° N
Ortszeit Stärke Spitze Richtung
km/h Bft. km/h Grad Sektor
So, 19.08. 22:30 22 4 32 270° W
So, 19.08. 22:20 22 4 - 270° W
So, 19.08. 22:10 22 4 - 270° W
So, 19.08. 22:00 20 4 33 270° W
So, 19.08. 21:50 20 4 - 270° W
So, 19.08. 21:40 18 3 - 270° W
So, 19.08. 21:30 19 3 26 260° W
So, 19.08. 21:00 19 3 28 270° W
So, 19.08. 20:30 17 3 28 270° W
So, 19.08. 20:00 15 3 26 270° W
So, 19.08. 19:30 18 3 25 270° W
Ortszeit Untergrenze Bedeckung Gattung
total tief tief mittel hoch
So, 19.08. 20:00 - 0/8 0/8 - - -
So, 19.08. 14:00 - 0/8 0/8 - - -
So, 19.08. 8:00 10500 m 3/8 0/8 - - -
So, 19.08. 2:00 8400 m 7/8 0/8 - - -
Sa, 18.08. 20:00 9000 m 8/8 0/8 - - -
Sa, 18.08. 14:00 10500 m 2/8 0/8 - - -
Sa, 18.08. 8:00 - 0/8 0/8 - - -
Sa, 18.08. 2:00 1500 m 8/8 7/8 - - -
Ortszeit Bedeckungsgrad in Achtel und Wolkenuntergrenze
So, 19.08. 22:30 2(2700m) 3(3600m)
So, 19.08. 22:20 2(2700m) 3(3600m)
So, 19.08. 22:10 9 9 9
So, 19.08. 22:00 2(3600m) 9 9
So, 19.08. 21:50 2(3600m)
So, 19.08. 21:40 9 9 9
So, 19.08. 21:30 9 9 9
So, 19.08. 21:00 keine Wolken
So, 19.08. 20:30 keine Wolken
So, 19.08. 20:00 keine Wolken
So, 19.08. 19:30 keine Wolken
Ortszeit Stationsdruck (hPa) Tendenz (hPa in 3 Std.)
So, 19.08. 20:00 922 - 0,5
So, 19.08. 14:00 923 - 0,9
So, 19.08. 8:00 924 - 0,1
So, 19.08. 2:00 925 - 0,2
Sa, 18.08. 20:00 924 + 0,2
Sa, 18.08. 14:00 925 + 0,1
Sa, 18.08. 8:00 924 + 0,6
Sa, 18.08. 2:00 923 + 0,7
Ortszeit Stationsdruck (hPa) Tendenz (hPa in 3 Std.)
So, 19.08. 22:30 922 - 0,1
So, 19.08. 22:20 922 keine Meldung
So, 19.08. 22:10 922 keine Meldung
So, 19.08. 22:00 922 - 0,1
So, 19.08. 21:50 922 keine Meldung
So, 19.08. 21:40 922 keine Meldung
So, 19.08. 21:30 922 - 0,2
So, 19.08. 21:00 922 - 0,2
So, 19.08. 20:30 922 - 0,4
So, 19.08. 20:00 922 - 0,5
So, 19.08. 19:30 922 - 0,6
Ortszeit Schneehöhe (cm)
So, 19.08. 20:00 -
So, 19.08. 14:00 -
So, 19.08. 8:00 -
So, 19.08. 2:00 -
Sa, 18.08. 20:00 -
Sa, 18.08. 14:00 -
Sa, 18.08. 8:00 -
Sa, 18.08. 2:00 -
Ortszeit Schneehöhe (cm)
So, 19.08. 22:30 -
So, 19.08. 22:20 -
So, 19.08. 22:10 -
So, 19.08. 22:00 -
So, 19.08. 21:50 -
So, 19.08. 21:40 -
So, 19.08. 21:30 -
So, 19.08. 21:00 -
So, 19.08. 20:30 -
So, 19.08. 20:00 -
So, 19.08. 19:30 -
Link zu dieser Seite / Seite empfehlen

Das Wetter in ...